星链-36049(STARLINK-36049)

导读

STARLINK-36049是美国于2025年12月1日发射的星链系列卫星,归属SpaceX星链互联网星座项目。星链项目旨在构建全球卫星互联网,为全球偏远、无网络覆盖区域及传统网络难以覆盖的场景提供高速低延迟宽带服务,该卫星将助力星链星座进一步完善全球服务覆盖能力。

基本信息
目录编号:
66805
目录名称:
STARLINK-36049
国际标识:
2025-278Q
轨道中心:
EARTH
卫星名称:
星链-36049
卫星全名:
星链-36049(STARLINK-36049)
卫星状态:
在轨 (已飞行284 天)
发射日期:
2025-12-01 UTC
国别 :
美国 (US)
星等 :
--
该卫星已列入 空间交会检测服务 Space Conjunction Data Service (SCDS) ,当前飞行风险评估等级: 高风险
轨道信息
数据来源 国际轨道数据
星历时间: 2026-09-11T09:07:17+0800
19小时前
查看轨道信息
半长轴: 6861.127km
偏心率: 0.0001995
轨道倾角: 43.001°
近地点辐角 265.307°
升交点赤经 147.867°
平近点角 94.755°
近地点: 481.621km
远地点: 484.359km
周期: 94.266分钟
每日圈数: 15.276
详细信息
固有亮度:
5
最大亮度:
2.5
卫星平台:
Starlink V1.0
覆盖范围:
全球
运营商:
太空探索技术公司
运营商所在国:
美国
制造商(研发单位):
太空探索技术公司
制造商所在国:
美国
使用方式:
暂无
卫星简介
Starlink 计划是 SpaceX 推出的全球卫星互联网项目,通过发射低轨道卫星,为全球尤其是偏远地区提供高速、低延迟的互联网服务。自 2019 年起,Starlink 已部署数千颗卫星,旨在缩小全球数字鸿沟,推动互联网普及。该项目还为军事、航空等行业提供通信支持,带来广泛经济效益。
2D轨道图
3D轨道图
轨道高度分析图
轨道倾角分析图
轨道综合分析图
查看轨道综合分析图
交会数据列表
事件ID 空间交会对象 最接近时刻(TCA) 交会距离 交会风险概率(CRP) 交会风险指数(CRI) 操作
CDM_260913-222505-965906-680521
2026-09-13T
22:25:38+0000
0.436 km
远距离
1.727747E-4 高风险 0.8
CDM_260913-033903-527006-680521
CZ-4 DEB (35270)
2026-09-13T
03:39:24+0000
0.941 km
远距离
2.597826E-5 中风险 0.63
CDM_260913-190906-680506-686121
2026-09-13T
19:09:56+0000
1.264 km
极远距离
8.808172E-6 低风险 0.54
CDM_260913-134705-965906-680521
2026-09-13T
13:47:47+0000
1.418 km
极远距离
4.600371E-6 低风险 0.48
CDM_260913-152105-965906-680521
2026-09-13T
15:21:57+0000
1.420 km
极远距离
4.577275E-6 低风险 0.48
CDM_260913-204406-680506-686121
2026-09-13T
20:44:05+0000
2.111 km
极远距离
1.901268E-6 低风险 0.41
CDM_260910-181605-749806-680522
2026-09-10T
18:16:23+0000
2.724 km
极远距离
1.061621E-6 低风险 0.36
与全量物体交会距离演化趋势
与全量物体交会风险概率演化趋势